Weather History for KDLS - September, 2013

Change the Weather History Date:

Sunday, September 8, 2013

  Actual Average Record
Temperature  
Mean Temperature 72 °F -  
Max Temperature 88 °F 83 °F 99 °F (1963)
Min Temperature 57 °F 54 °F 40 °F (1960)
Cooling Degree Days 8    
Growing Degree Days 22 (Base 50)    
Moisture  
Dew Point 54 °F    
Average Humidity 57    
Maximum Humidity 83    
Minimum Humidity 26    
Precipitation  
Precipitation 0.00 in - - ()
Sea Level Pressure  
Sea Level Pressure 30.01 in    
Wind  
Wind Speed 4 mph (ESE)    
Max Wind Speed 9 mph    
Max Gust Speed -    
Visibility 10 miles    
Events      
Averages and records for this station are not official NWS values.
T = Trace of Precipitation, MM = Missing Value Source: NWS Daily Summary

Daily Weather History Graph

Daily Weather History Graph

Search for Another Location

Airport or City:

Trip Planner

Search our weather history database for the weather conditions in past years. The results will help you decide how hot, cold, wet, or windy it might be!

Date:

Astronomy

Sep. 08, 2013 Rise Set
Actual Time 6:34 AM PDT 7:28 PM PDT
Civil Twilight 6:04 AM PDT 7:58 PM PDT
Nautical Twilight 5:28 AM PDT 8:34 PM PDT
Astronomical Twilight 4:50 AM PDT 9:12 PM PDT
Moon 10:11 AM PDT (9/8) 8:53 PM PDT (9/8)
Length of Visible Light 13h 54m
Length of Day
12h 53m
Waxing Crescent, 12% of the Moon is Illuminated
Sep 8
Waxing Crescent
Sep 12
First Quarter
Sep 19
Full
Sep 26
Last Quarter
Oct 4
New

Hourly Weather History & Observations

Time (PDT) Temp. Heat Index Dew Point Humidity Pressure Visibility Wind Dir Wind Speed Gust Speed Precip Events Conditions
12:53 AM 64.0 °F - 55.0 °F 73% 30.03 in 10.0 mi ENE 5.8 mph - N/A   Clear
1:53 AM 63.0 °F - 55.0 °F 75% 30.03 in 10.0 mi SW 3.5 mph - N/A   Mostly Cloudy
2:53 AM 62.1 °F - 55.0 °F 78% 30.04 in 10.0 mi WSW 3.5 mph - N/A   Overcast
3:53 AM 61.0 °F - 54.0 °F 78% 30.04 in 10.0 mi East 4.6 mph - N/A   Scattered Clouds
4:53 AM 59.0 °F - 53.1 °F 81% 30.05 in 10.0 mi ESE 5.8 mph - N/A   Clear
5:53 AM 57.0 °F - 52.0 °F 83% 30.06 in 10.0 mi ESE 5.8 mph - N/A   Clear
6:53 AM 57.0 °F - 52.0 °F 83% 30.07 in 10.0 mi ESE 4.6 mph - N/A   Clear
7:53 AM 60.1 °F - 53.1 °F 78% 30.08 in 10.0 mi ESE 4.6 mph - N/A   Clear
8:53 AM 64.0 °F - 55.0 °F 73% 30.08 in 10.0 mi Calm Calm - N/A   Clear
9:53 AM 69.1 °F - 55.0 °F 61% 30.07 in 10.0 mi Calm Calm - N/A   Clear
10:53 AM 73.0 °F - 55.0 °F 53% 30.08 in 10.0 mi Variable 3.5 mph - N/A   Clear
11:53 AM 75.9 °F - 55.0 °F 48% 30.06 in 10.0 mi Calm Calm - N/A   Clear
12:53 PM 80.1 °F 80.0 °F 54.0 °F 40% 30.03 in 10.0 mi Variable 3.5 mph - N/A   Clear
1:53 PM 82.0 °F - 52.0 °F 35% 30.01 in 10.0 mi Variable 4.6 mph - N/A   Clear
2:53 PM 84.0 °F - 51.1 °F 32% 29.99 in 10.0 mi Calm Calm - N/A   Clear
3:53 PM 87.1 °F - 50.0 °F 28% 29.96 in 10.0 mi Calm Calm - N/A   Clear
4:53 PM 87.1 °F - 50.0 °F 28% 29.94 in 10.0 mi East 3.5 mph - N/A   Clear
5:53 PM 88.0 °F - 48.9 °F 26% 29.92 in 10.0 mi Calm Calm - N/A   Clear
6:53 PM 84.0 °F 82.5 °F 53.1 °F 34% 29.92 in 10.0 mi NNW 6.9 mph - N/A   Clear
7:53 PM 79.0 °F - 57.9 °F 48% 29.92 in 10.0 mi WSW 3.5 mph - N/A   Clear
8:53 PM 73.9 °F - 54.0 °F 50% 29.93 in 10.0 mi Calm Calm - N/A   Clear
9:53 PM 73.9 °F - 55.0 °F 52% 29.94 in 10.0 mi Calm Calm - N/A   Clear
10:53 PM 73.0 °F - 57.9 °F 59% 29.94 in 10.0 mi Calm Calm - N/A   Clear
11:53 PM 73.0 °F - 60.1 °F 64% 29.95 in 10.0 mi NW 9.2 mph - N/A   Clear